Content
SEND FEEDBACK

Daily
Averages
Monthly
Summary
United States of America

COPPERAS COVE, TEXAS


Home > North America > United States > Texas
Elevation: 1015 feet     Latitude: 31 04N     Longitude: 097 50W

WEATHER
 
SELECT A DAY
Number of Records: 194,345;   Date Range: 1/1/95 - 11/27/14
 
SHARE

PRINT THIS DATA

[ ← Previous Day ]
WEATHER ALMANAC - JANUARY 3, 2013
[ Next Day → ]
[ °C ]   °F
Weather ElementAverageHighLow
Temperature38.8 °F44.6 °F (12:55 pm)28.4 °F (2:55 am)
Dewpoint26.6 °F30.2 °F (5:55 am)23 °F (2:55 am)
Humidity63.1 %86 % (3:55 am)46 % (12:55 pm)
Barometer30.43 in30.47 in (9:55 am)30.34 in (5:55 am)
Wind Speed8 mph13.8 mph (10:55 am)
Weather ElementAverage
Visibility7 mi
Wind DirectionWNW (306.1 °)

Weather ElementTotal
Precipitation---
Heating Degree Days28.5 (Base 65)
Averaged from 23 records on January 3, 2013
WEATHER CONDITIONS BREAKOUT
WIND DIRECTION BREAKOUT
WEATHER BY HOUR - JANUARY 3, 2013
[ °C ]   °F
Local TimeTemperatureDewpointHumidityBarometerVisibilityWind DirectionWind SpeedGust SpeedPrecipitationEventsConditions
1:55 AM30.2 °F24.8 °F80 %30.36 in7.0 miWNW (300°)8.1 mphClear
2:55 AM28.4 °F23.0 °F80 %30.37 in7.0 miWNW (290°)5.8 mphClear
3:55 AM28.4 °F24.8 °F86 %30.37 in7.0 miWNW (300°)11.5 mphClear
4:55 AM28.4 °F23.0 °F80 %30.38 in7.0 miWNW (300°)10.4 mphPartly Cloudy
5:55 AM39.2 °F30.2 °F70 %30.34 in7.0 miNNE (20°)6.9 mphOvercast
6:55 AM28.4 °F24.8 °F86 %30.43 in7.0 miWNW (300°)9.2 mphMostly Cloudy
7:55 AM30.2 °F26.6 °F86 %30.43 in7.0 miWNW (300°)12.7 mphMostly Cloudy
8:55 AM33.8 °F26.6 °F75 %30.45 in7.0 miNW (310°)11.5 mphMostly Cloudy
9:55 AM35.6 °F26.6 °F70 %30.47 in7.0 miNNW (330°)10.4 mphMostly Cloudy
10:55 AM41.0 °F28.4 °F61 %30.47 in7.0 miNNW (340°)13.8 mphMostly Cloudy
11:55 AM42.8 °F26.6 °F53 %30.46 in7.0 miNNW (330°)8.1 mphMostly Cloudy
12:55 PM44.6 °F24.8 °F46 %30.45 in7.0 miNW (310°)6.9 mphOvercast
1:55 PM44.6 °F26.6 °F49 %30.43 in7.0 miNW (320°)9.2 mphOvercast
2:55 PM44.6 °F26.6 °F49 %30.42 in7.0 miWNW (300°)8.1 mphOvercast
3:55 PM44.6 °F26.6 °F49 %30.43 in7.0 miNNW (330°)6.9 mphOvercast
4:55 PM44.6 °F26.6 °F49 %30.44 in7.0 miNNW (330°)5.8 mphOvercast
5:55 PM44.6 °F28.4 °F53 %30.44 in7.0 miWNW (300°)4.6 mphOvercast
6:55 PM42.8 °F30.2 °F61 %30.45 in7.0 miNW (310°)3.5 mphOvercast
7:55 PM42.8 °F28.4 °F57 %30.45 in7.0 miNNW (330°)5.8 mphOvercast
8:55 PM42.8 °F28.4 °F57 %30.44 in7.0 miNorth (350°)5.8 mphOvercast
9:55 PM44.6 °F26.6 °F49 %30.45 in7.0 miNorth (350°)6.9 mphOvercast
10:55 PM42.8 °F26.6 °F53 %30.44 in7.0 miNorth (350°)6.9 mphOvercast
11:55 PM42.8 °F26.6 °F53 %30.45 in7.0 miNNW (340°)4.6 mphOvercast
Hourly data recorded from KGRK, located miles away from Copperas Cove, Texas







STORIES FROM OUR PARTNERS